Location: Aula-Vintri
(58.3875°N, 22.4322°E)
Time: 19:59:32
(UTC+00:00)

GEOS 3 Rocket - Pass Details

Date: 13 October 2019
Orbit: 787 x 832 km, 115.0° (Epoch: 22 November)

Event Time Altitude Azimuth Distance (km) Brightness Sun altitude
Exits shadow 17:43:20 28° 78° (ENE) 1,452 4.4 -18.0°
Maximum altitude 17:45:45 51° 18° (NNE) 1,004 4.0 -18.3°
Drops below altitude 10° 17:50:44 10° 304° (WNW) 2,390 7.2 -18.9°
Sets 17:53:05 0° 299° (WNW) 3,329 8.3 -19.2°
